Time,TemperatureF,DewpointF,PressureIn,WindDirection,WindDirectionDegrees,WindSpeedMPH,WindSpeedGustMPH,Humidity,HourlyPrecipIn,Conditions,Clouds,dailyrainin,SoftwareType,DateUTC
2013-06-18 00:02:00,70.0,46.0,27.78,WSW,252,5.0,14.0,42,0.00,,,0.01,,2013-06-18 07:02:00,
2013-06-18 00:12:00,69.0,47.0,27.84,ENE,67,1.0,10.0,45,0.00,,,0.01,,2013-06-18 07:12:00,
2013-06-18 00:22:00,68.0,46.0,27.78,NNE,23,2.0,5.0,46,0.00,,,0.01,,2013-06-18 07:22:00,
2013-06-18 00:33:00,68.0,46.0,27.78,West,259,3.0,12.0,45,0.00,,,0.01,,2013-06-18 07:33:00,
2013-06-18 00:42:00,69.0,46.0,27.83,West,268,6.0,11.0,44,0.00,,,0.01,,2013-06-18 07:42:00,
2013-06-18 00:52:00,68.0,46.0,27.78,NW,310,5.0,10.0,45,0.00,,,0.01,,2013-06-18 07:52:00,
2013-06-18 01:01:00,68.0,46.0,27.78,NW,310,5.0,10.0,45,0.00,,,0.01,,2013-06-18 08:01:00,
2013-06-18 01:11:00,69.0,46.0,27.78,West,262,8.0,15.0,44,0.00,,,0.01,,2013-06-18 08:11:00,
2013-06-18 01:23:00,68.0,46.0,27.78,ENE,70,5.0,12.0,46,0.00,,,0.00,,2013-06-18 08:23:00,
2013-06-18 01:32:00,68.0,46.0,27.78,ENE,70,5.0,12.0,46,0.00,,,0.00,,2013-06-18 08:32:00,
2013-06-18 01:43:00,67.0,47.0,27.83,NW,319,6.0,18.0,48,0.00,,,0.00,,2013-06-18 08:43:00,
2013-06-18 01:52:00,68.0,46.0,27.78,NW,321,6.0,12.0,46,0.00,,,0.00,,2013-06-18 08:52:00,
2013-06-18 02:01:00,67.0,47.0,27.80,SW,233,1.0,7.0,48,0.00,,,0.00,,2013-06-18 09:01:00,
2013-06-18 02:11:00,67.0,47.0,27.85,NNW,343,1.0,7.0,48,0.00,,,0.00,,2013-06-18 09:11:00,
2013-06-18 02:22:00,66.0,46.0,27.79,East,91,2.0,9.0,49,0.00,,,0.00,,2013-06-18 09:22:00,
2013-06-18 02:33:00,66.0,46.0,27.79,East,91,2.0,9.0,49,0.00,,,0.00,,2013-06-18 09:33:00,
2013-06-18 02:42:00,66.0,46.0,27.79,NE,43,5.0,16.0,49,0.00,,,0.00,,2013-06-18 09:42:00,
2013-06-18 02:53:00,66.0,46.0,27.80,WNW,294,9.0,16.0,48,0.00,,,0.00,,2013-06-18 09:53:00,
2013-06-18 03:01:00,66.0,46.0,27.80,NW,314,9.0,16.0,48,0.00,,,0.00,,2013-06-18 10:01:00,
2013-06-18 03:11:00,66.0,46.0,27.80,NW,314,9.0,16.0,48,0.00,,,0.00,,2013-06-18 10:11:00,
2013-06-18 03:22:00,65.0,45.0,27.80,NW,307,7.0,15.0,48,0.00,,,0.00,,2013-06-18 10:22:00,
2013-06-18 03:33:00,65.0,45.0,27.80,NW,316,5.0,15.0,48,0.00,,,0.00,,2013-06-18 10:33:00,
2013-06-18 03:42:00,65.0,45.0,27.80,NW,316,5.0,15.0,48,0.00,,,0.00,,2013-06-18 10:42:00,
2013-06-18 03:53:00,64.0,44.0,27.81,WNW,297,5.0,13.0,49,0.00,,,0.00,,2013-06-18 10:53:00,
2013-06-18 04:02:00,64.0,44.0,27.81,WNW,297,5.0,13.0,49,0.00,,,0.00,,2013-06-18 11:02:00,
2013-06-18 04:11:00,64.0,44.0,27.81,NW,321,8.0,14.0,49,0.00,,,0.00,,2013-06-18 11:11:00,
2013-06-18 04:22:00,64.0,44.0,27.81,North,354,5.0,16.0,49,0.00,,,0.00,,2013-06-18 11:22:00,
2013-06-18 04:32:00,64.0,44.0,27.81,North,354,5.0,16.0,49,0.00,,,0.00,,2013-06-18 11:32:00,
2013-06-18 04:42:00,63.0,45.0,27.81,West,273,5.0,12.0,51,0.00,,,0.00,,2013-06-18 11:42:00,
2013-06-18 04:52:00,63.0,45.0,27.81,West,273,5.0,12.0,51,0.00,,,0.00,,2013-06-18 11:52:00,
2013-06-18 05:01:00,63.0,44.0,27.80,NW,323,6.0,17.0,50,0.00,,,0.00,,2013-06-18 12:01:00,
2013-06-18 05:11:00,63.0,45.0,27.80,WSW,256,6.0,12.0,51,0.00,,,0.00,,2013-06-18 12:11:00,
2013-06-18 05:22:00,62.0,44.0,27.81,WSW,246,5.0,8.0,52,0.00,,,0.00,,2013-06-18 12:22:00,
2013-06-18 05:32:00,62.0,44.0,27.81,WSW,246,5.0,8.0,52,0.00,,,0.00,,2013-06-18 12:32:00,
2013-06-18 05:42:00,62.0,44.0,27.81,WSW,253,5.0,11.0,52,0.00,,,0.00,,2013-06-18 12:42:00,
2013-06-18 05:52:00,62.0,44.0,27.81,WSW,253,5.0,11.0,52,0.00,,,0.00,,2013-06-18 12:52:00,
2013-06-18 06:01:00,63.0,45.0,27.82,WSW,245,6.0,12.0,51,0.00,,,0.00,,2013-06-18 13:01:00,
2013-06-18 06:11:00,63.0,44.0,27.82,WSW,242,4.0,7.0,50,0.00,,,0.00,,2013-06-18 13:11:00,
2013-06-18 06:22:00,63.0,45.0,27.82,WNW,302,5.0,11.0,51,0.00,,,0.00,,2013-06-18 13:22:00,
2013-06-18 06:33:00,63.0,45.0,27.82,WNW,302,5.0,11.0,51,0.00,,,0.00,,2013-06-18 13:33:00,
2013-06-18 06:43:00,62.0,45.0,27.83,West,269,1.0,8.0,54,0.00,,,0.00,,2013-06-18 13:43:00,
2013-06-18 06:52:00,62.0,45.0,27.83,West,269,1.0,8.0,54,0.00,,,0.00,,2013-06-18 13:52:00,
2013-06-18 07:02:00,61.0,45.0,27.83,West,281,2.0,4.0,55,0.00,,,0.00,,2013-06-18 14:02:00,
2013-06-18 07:11:00,61.0,44.0,27.83,SSW,204,1.0,8.0,54,0.00,,,0.00,,2013-06-18 14:11:00,
2013-06-18 07:22:00,62.0,45.0,27.84,NE,41,2.0,4.0,54,0.00,,,0.00,,2013-06-18 14:22:00,
2013-06-18 07:33:00,62.0,45.0,27.84,NE,41,2.0,4.0,54,0.00,,,0.00,,2013-06-18 14:33:00,
2013-06-18 07:43:00,61.0,46.0,27.83,North,4,5.0,14.0,57,0.00,,,0.00,,2013-06-18 14:43:00,
2013-06-18 07:52:00,61.0,46.0,27.83,North,4,5.0,14.0,57,0.00,,,0.00,,2013-06-18 14:52:00,
2013-06-18 08:01:00,63.0,47.0,27.84,East,87,1.0,6.0,55,0.00,,,0.00,,2013-06-18 15:01:00,
2013-06-18 08:11:00,64.0,45.0,27.84,SSW,196,0.0,4.0,51,0.00,,,0.00,,2013-06-18 15:11:00,
2013-06-18 08:22:00,65.0,48.0,27.84,SE,142,0.0,2.0,55,0.00,,,0.00,,2013-06-18 15:22:00,
2013-06-18 08:33:00,65.0,48.0,27.84,SE,142,0.0,2.0,55,0.00,,,0.00,,2013-06-18 15:33:00,
2013-06-18 08:42:00,65.0,48.0,27.84,West,262,0.0,3.0,55,0.00,,,0.00,,2013-06-18 15:42:00,
2013-06-18 08:52:00,65.0,48.0,27.84,West,262,0.0,3.0,55,0.00,,,0.00,,2013-06-18 15:52:00,
2013-06-18 09:01:00,66.0,48.0,27.83,ESE,110,0.0,3.0,53,0.00,,,0.00,,2013-06-18 16:01:00,
2013-06-18 09:11:00,66.0,47.0,27.83,SE,145,0.0,2.0,50,0.00,,,0.00,,2013-06-18 16:11:00,
2013-06-18 09:22:00,67.0,47.0,27.83,WSW,255,1.0,2.0,49,0.00,,,0.00,,2013-06-18 16:22:00,
2013-06-18 09:33:00,67.0,47.0,27.83,WSW,255,1.0,2.0,49,0.00,,,0.00,,2013-06-18 16:33:00,
2013-06-18 09:43:00,67.0,46.0,27.82,WSW,249,1.0,4.0,47,0.00,,,0.00,,2013-06-18 16:43:00,
2013-06-18 09:52:00,67.0,46.0,27.82,WSW,249,1.0,4.0,47,0.00,,,0.00,,2013-06-18 16:52:00,
2013-06-18 10:01:00,67.0,47.0,27.82,East,82,1.0,3.0,48,0.00,,,0.00,,2013-06-18 17:01:00,
2013-06-18 10:11:00,66.0,47.0,27.83,SW,224,0.0,5.0,50,0.00,,,0.00,,2013-06-18 17:11:00,
2013-06-18 10:22:00,66.0,47.0,27.83,SSE,164,0.0,2.0,51,0.00,,,0.00,,2013-06-18 17:22:00,
2013-06-18 10:33:00,66.0,47.0,27.83,SSE,164,0.0,2.0,51,0.00,,,0.00,,2013-06-18 17:33:00,
2013-06-18 10:43:00,66.0,49.0,27.83,WSW,243,1.0,4.0,54,0.00,,,0.00,,2013-06-18 17:43:00,
2013-06-18 10:53:00,66.0,49.0,27.82,South,180,0.0,3.0,54,0.00,,,0.00,,2013-06-18 17:53:00,
2013-06-18 11:01:00,66.0,49.0,27.82,South,180,0.0,3.0,54,0.00,,,0.00,,2013-06-18 18:01:00,
2013-06-18 11:11:00,67.0,50.0,27.86,SE,143,1.0,3.0,55,0.00,,,0.00,,2013-06-18 18:11:00,
2013-06-18 11:22:00,67.0,50.0,27.82,South,179,3.0,5.0,54,0.00,,,0.00,,2013-06-18 18:22:00,
2013-06-18 11:33:00,67.0,50.0,27.82,South,179,3.0,5.0,54,0.00,,,0.00,,2013-06-18 18:33:00,
2013-06-18 11:42:00,67.0,50.0,27.86,SSE,160,1.0,3.0,54,0.00,,,0.00,,2013-06-18 18:42:00,
2013-06-18 11:53:00,67.0,49.0,27.81,WSW,245,2.0,5.0,53,0.00,,,0.00,,2013-06-18 18:53:00,
2013-06-18 12:01:00,67.0,49.0,27.81,WSW,245,2.0,5.0,53,0.00,,,0.00,,2013-06-18 19:01:00,
2013-06-18 12:11:00,68.0,50.0,27.81,South,188,2.0,8.0,52,0.00,,,0.00,,2013-06-18 19:11:00,
2013-06-18 12:22:00,69.0,51.0,27.81,SSE,165,3.0,7.0,53,0.00,,,0.00,,2013-06-18 19:22:00,
2013-06-18 12:33:00,69.0,51.0,27.81,SSE,165,3.0,7.0,53,0.00,,,0.00,,2013-06-18 19:33:00,
2013-06-18 12:42:00,69.0,53.0,27.86,South,170,3.0,9.0,56,0.00,,,0.00,,2013-06-18 19:42:00,
2013-06-18 12:52:00,69.0,53.0,27.86,South,170,3.0,9.0,56,0.00,,,0.00,,2013-06-18 19:52:00,
2013-06-18 13:01:00,68.0,52.0,27.81,SSE,160,3.0,8.0,57,0.00,,,0.00,,2013-06-18 20:01:00,
2013-06-18 13:11:00,68.0,54.0,27.86,South,173,5.0,10.0,60,0.00,,,0.00,,2013-06-18 20:11:00,
2013-06-18 13:22:00,68.0,53.0,27.81,WSW,248,3.0,12.0,59,0.00,,,0.00,,2013-06-18 20:22:00,
2013-06-18 13:33:00,68.0,53.0,27.81,WSW,248,3.0,12.0,59,0.00,,,0.00,,2013-06-18 20:33:00,
2013-06-18 13:43:00,68.0,54.0,27.86,South,176,6.0,14.0,60,0.00,,,0.00,,2013-06-18 20:43:00,
2013-06-18 13:52:00,68.0,54.0,27.86,South,176,6.0,14.0,60,0.00,,,0.00,,2013-06-18 20:52:00,
2013-06-18 14:01:00,67.0,52.0,27.81,SSE,159,3.0,11.0,59,0.00,,,0.00,,2013-06-18 21:01:00,
2013-06-18 14:11:00,66.0,52.0,27.85,SSE,158,7.0,17.0,60,0.00,,,0.00,,2013-06-18 21:11:00,
2013-06-18 14:22:00,65.0,51.0,27.81,SSE,150,8.0,17.0,60,0.00,,,0.00,,2013-06-18 21:22:00,
2013-06-18 14:33:00,65.0,51.0,27.81,SSE,150,8.0,17.0,60,0.00,,,0.00,,2013-06-18 21:33:00,
2013-06-18 14:43:00,64.0,50.0,27.86,SSE,166,4.0,12.0,61,0.00,,,0.00,,2013-06-18 21:43:00,
2013-06-18 14:52:00,63.0,49.0,27.81,SE,131,6.0,13.0,60,0.00,,,0.00,,2013-06-18 21:52:00,
2013-06-18 15:01:00,63.0,49.0,27.81,SE,131,6.0,13.0,60,0.00,,,0.00,,2013-06-18 22:01:00,
2013-06-18 15:11:00,64.0,50.0,27.82,SSW,193,5.0,13.0,60,0.00,,,0.00,,2013-06-18 22:11:00,
2013-06-18 15:22:00,64.0,51.0,27.82,West,262,3.0,15.0,62,0.00,,,0.00,,2013-06-18 22:22:00,
2013-06-18 15:34:00,64.0,51.0,27.82,West,262,3.0,15.0,62,0.00,,,0.00,,2013-06-18 22:34:00,
2013-06-18 15:42:00,64.0,51.0,27.87,South,174,4.0,13.0,62,0.00,,,0.00,,2013-06-18 22:42:00,
2013-06-18 15:53:00,64.0,51.0,27.87,South,174,4.0,13.0,62,0.00,,,0.00,,2013-06-18 22:53:00,
2013-06-18 16:01:00,63.0,50.0,27.82,SE,145,3.0,16.0,63,0.00,,,0.00,,2013-06-18 23:01:00,
2013-06-18 16:11:00,63.0,51.0,27.86,SE,129,4.0,11.0,66,0.00,,,0.00,,2013-06-18 23:11:00,
2013-06-18 16:23:00,63.0,52.0,27.82,South,176,4.0,8.0,68,0.00,,,0.00,,2013-06-18 23:23:00,
2013-06-18 16:35:00,63.0,52.0,27.82,South,176,4.0,8.0,68,0.00,,,0.00,,2013-06-18 23:35:00,
2013-06-18 16:44:00,63.0,52.0,27.86,NNE,19,4.0,9.0,68,0.00,,,0.00,,2013-06-18 23:44:00,
2013-06-18 16:53:00,63.0,52.0,27.86,NNE,19,4.0,9.0,68,0.00,,,0.00,,2013-06-18 23:53:00,
2013-06-18 17:01:00,63.0,52.0,27.81,ENE,77,4.0,8.0,67,0.00,,,0.00,,2013-06-19 00:01:00,
2013-06-18 17:11:00,65.0,53.0,27.85,NNE,18,4.0,8.0,65,0.00,,,0.00,,2013-06-19 00:11:00,
2013-06-18 17:22:00,64.0,52.0,27.81,SSE,148,4.0,9.0,66,0.00,,,0.00,,2013-06-19 00:22:00,
2013-06-18 17:33:00,64.0,52.0,27.81,SSE,148,4.0,9.0,66,0.00,,,0.00,,2013-06-19 00:33:00,
2013-06-18 17:43:00,65.0,53.0,27.85,SSE,154,1.0,5.0,66,0.00,,,0.00,,2013-06-19 00:43:00,
2013-06-18 17:53:00,65.0,53.0,27.85,SSE,154,1.0,5.0,66,0.00,,,0.00,,2013-06-19 00:53:00,
2013-06-18 18:01:00,64.0,52.0,27.81,SE,125,3.0,7.0,64,0.00,,,0.00,,2013-06-19 01:01:00,
2013-06-18 18:11:00,64.0,52.0,27.81,West,271,2.0,8.0,65,0.00,,,0.00,,2013-06-19 01:11:00,
2013-06-18 18:22:00,64.0,52.0,27.85,ESE,123,1.0,8.0,65,0.00,,,0.00,,2013-06-19 01:22:00,
2013-06-18 18:32:00,64.0,52.0,27.85,ESE,123,1.0,8.0,65,0.00,,,0.00,,2013-06-19 01:32:00,
2013-06-18 18:42:00,64.0,52.0,27.85,ESE,123,1.0,8.0,65,0.00,,,0.00,,2013-06-19 01:42:00,
2013-06-18 18:53:00,64.0,52.0,27.85,ESE,123,1.0,8.0,65,0.00,,,0.00,,2013-06-19 01:53:00,
2013-06-18 19:11:00,65.0,53.0,27.84,NW,326,1.0,2.0,64,0.00,,,0.00,,2013-06-19 02:11:00,
2013-06-18 19:21:00,65.0,53.0,27.84,NW,326,1.0,2.0,64,0.00,,,0.00,,2013-06-19 02:21:00,
2013-06-18 19:32:00,65.0,53.0,27.84,NW,326,1.0,2.0,64,0.00,,,0.00,,2013-06-19 02:32:00,
2013-06-18 19:42:00,59.0,54.0,27.80,NE,43,4.0,12.0,85,0.00,,,0.00,,2013-06-19 02:42:00,
2013-06-18 19:51:00,59.0,54.0,27.80,West,262,1.0,8.0,83,0.00,,,0.00,,2013-06-19 02:51:00,
2013-06-18 20:01:00,59.0,54.0,27.80,West,262,1.0,8.0,83,0.00,,,0.00,,2013-06-19 03:01:00,
2013-06-18 20:11:00,59.0,54.0,27.80,West,262,1.0,8.0,83,0.00,,,0.00,,2013-06-19 03:11:00,
2013-06-18 20:21:00,59.0,53.0,27.81,WNW,300,2.0,6.0,81,0.00,,,0.00,,2013-06-19 03:21:00,
2013-06-18 20:32:00,59.0,53.0,27.81,WNW,300,2.0,6.0,81,0.00,,,0.00,,2013-06-19 03:32:00,
2013-06-18 20:42:00,58.0,53.0,27.81,NNE,32,7.0,14.0,83,0.00,,,0.00,,2013-06-19 03:42:00,
2013-06-18 20:52:00,59.0,52.0,27.81,NNW,331,4.0,10.0,77,0.00,,,0.00,,2013-06-19 03:52:00,
2013-06-18 21:01:00,59.0,52.0,27.81,NNW,331,4.0,10.0,77,0.00,,,0.00,,2013-06-19 04:01:00,
2013-06-18 21:11:00,59.0,52.0,27.81,NNW,343,4.0,9.0,77,0.00,,,0.00,,2013-06-19 04:11:00,
2013-06-18 21:22:00,59.0,52.0,27.81,NNW,343,4.0,9.0,77,0.00,,,0.00,,2013-06-19 04:22:00,
2013-06-18 21:32:00,59.0,52.0,27.81,NNW,343,4.0,9.0,77,0.00,,,0.00,,2013-06-19 04:32:00,
2013-06-18 21:42:00,60.0,50.0,27.82,NW,312,4.0,9.0,70,0.00,,,0.00,,2013-06-19 04:42:00,
2013-06-18 21:52:00,60.0,50.0,27.82,NW,312,4.0,9.0,70,0.00,,,0.00,,2013-06-19 04:52:00,
2013-06-18 22:01:00,60.0,50.0,27.82,NW,312,4.0,9.0,70,0.00,,,0.00,,2013-06-19 05:01:00,
2013-06-18 22:11:00,60.0,50.0,27.82,NW,312,4.0,9.0,70,0.00,,,0.00,,2013-06-19 05:11:00,
2013-06-18 22:22:00,59.0,50.0,27.80,WSW,238,3.0,9.0,73,0.00,,,0.00,,2013-06-19 05:22:00,
2013-06-18 22:32:00,59.0,50.0,27.80,WSW,238,3.0,9.0,73,0.00,,,0.00,,2013-06-19 05:32:00,
2013-06-18 22:43:00,60.0,50.0,27.81,NNE,16,3.0,9.0,69,0.00,,,0.00,,2013-06-19 05:43:00,
2013-06-18 22:52:00,59.0,50.0,27.80,WNW,299,4.0,11.0,73,0.00,,,0.00,,2013-06-19 05:52:00,
2013-06-18 23:01:00,59.0,50.0,27.80,WNW,299,4.0,11.0,73,0.00,,,0.00,,2013-06-19 06:01:00,
2013-06-18 23:11:00,59.0,50.0,27.80,WSW,240,4.0,13.0,73,0.00,,,0.00,,2013-06-19 06:11:00,
2013-06-18 23:21:00,59.0,50.0,27.83,West,277,2.0,13.0,73,0.00,,,0.00,,2013-06-19 06:21:00,
2013-06-18 23:33:00,58.0,50.0,27.80,NE,43,2.0,15.0,75,0.00,,,0.00,,2013-06-19 06:33:00,
2013-06-18 23:42:00,59.0,51.0,27.83,WSW,240,4.0,8.0,74,0.00,,,0.00,,2013-06-19 06:42:00,
2013-06-18 23:52:00,58.0,50.0,27.80,South,172,3.0,8.0,74,0.00,,,0.00,,2013-06-19 06:52:00,